Change the Weather History Date:

Saturday, May 11, 2013

  Actual Average Record
Temperature  
Mean Temperature 73 °F 67 °F  
Max Temperature 89 °F 83 °F 99 °F (1960)
Min Temperature 57 °F 51 °F 32 °F (2005)
Degree Days  
Heating Degree Days 0 2  
Month to date heating degree days 18 31  
Since 1 July heating degree days 2899 3077  
Cooling Degree Days 8 4  
Month to date cooling degree days 19 37  
Year to date cooling degree days 59 68  
Growing Degree Days 23 (Base 50)    
Moisture  
Dew Point 26 °F    
Average Humidity 24    
Maximum Humidity 39    
Minimum Humidity 8    
Precipitation  
Precipitation 0.00 in 0.01 in 0.90 in (1958)
Month to date precipitation T 0.08  
Year to date precipitation 1.18 3.41  
Sea Level Pressure  
Sea Level Pressure 30.01 in    
Wind  
Wind Speed 10 mph (ENE)    
Max Wind Speed 25 mph    
Max Gust Speed 31 mph    
Visibility 10 miles    
Events      
T = Trace of Precipitation, MM = Missing Value Source: NWS Daily Summary

Daily Weather History Graph

Daily Weather History Graph

Search for Another Location

Airport or City:

Trip Planner

Search our weather history database for the weather conditions in past years. The results will help you decide how hot, cold, wet, or windy it might be!

Date:

Astronomy

May. 11, 2013 Rise Set
Actual Time 5:34 AM MST 7:30 PM MST
Civil Twilight 5:06 AM MST 7:58 PM MST
Nautical Twilight 4:32 AM MST 8:32 PM MST
Astronomical Twilight 3:56 AM MST 9:08 PM MST
Moon 6:46 AM MST (5/11) 9:12 PM MST (5/11)
Length of Visible Light 14h 51m
Length of Day
13h 55m
Waxing Crescent, 3% of the Moon is Illuminated
May 11
Waxing Crescent
May 17
First Quarter
May 24
Full
May 31
Last Quarter
Jun 8
New

Hourly Weather History & Observations

Time (MST) Temp. Dew Point Humidity Pressure Visibility Wind Dir Wind Speed Gust Speed Precip Events Conditions
12:51 AM 57.9 °F 30.9 °F 36% 29.99 in 10.0 mi ESE 9.2 mph - N/A   Clear
1:51 AM 62.1 °F 30.9 °F 31% 30.00 in 10.0 mi SE 11.5 mph - N/A   Clear
2:51 AM 60.1 °F 32.0 °F 35% 30.00 in 10.0 mi SE 9.2 mph - N/A   Clear
3:51 AM 57.0 °F 32.0 °F 39% 30.00 in 10.0 mi East 11.5 mph - N/A   Clear
4:51 AM 59.0 °F 32.0 °F 36% 30.00 in 10.0 mi ESE 3.5 mph - N/A   Clear
5:51 AM 60.1 °F 33.1 °F 36% 30.02 in 10.0 mi Calm Calm - N/A   Clear
6:51 AM 66.0 °F 34.0 °F 30% 30.03 in 10.0 mi Calm Calm - N/A   Clear
7:51 AM 71.1 °F 33.1 °F 25% 30.04 in 10.0 mi North 3.5 mph - N/A   Clear
8:51 AM 75.0 °F 33.1 °F 22% 30.04 in 10.0 mi NNW 11.5 mph - N/A   Clear
9:23 AM 78.8 °F 32.0 °F 18% 30.21 in 10.0 mi NE 19.6 mph - N/A   Clear
9:51 AM 80.1 °F 30.0 °F 16% 30.04 in 10.0 mi ENE 16.1 mph 24.2 mph N/A   Clear
10:51 AM 82.0 °F 28.9 °F 14% 30.04 in 10.0 mi East 10.4 mph 31.1 mph N/A   Clear
11:51 AM 84.9 °F 28.0 °F 13% 30.03 in 10.0 mi ENE 18.4 mph 27.6 mph N/A   Partly Cloudy
12:51 PM 86.0 °F 26.1 °F 11% 30.01 in 10.0 mi NE 9.2 mph 26.5 mph N/A   Partly Cloudy
1:51 PM 88.0 °F 23.0 °F 9% 29.98 in 10.0 mi NE 16.1 mph 25.3 mph N/A   Partly Cloudy
2:43 PM 87.8 °F 21.2 °F 9% 30.16 in 10.0 mi ENE 11.5 mph 23.0 mph N/A   Clear
2:51 PM 88.0 °F 21.0 °F 9% 29.96 in 10.0 mi North 13.8 mph 23.0 mph N/A   Clear
2:54 PM 87.8 °F 21.2 °F 9% 30.15 in 10.0 mi North 15.0 mph 29.9 mph N/A   Clear
3:51 PM 88.0 °F 19.9 °F 8% 29.95 in 10.0 mi Variable 5.8 mph 18.4 mph N/A   Clear
4:51 PM 88.0 °F 19.0 °F 8% 29.94 in 10.0 mi NNE 12.7 mph 20.7 mph N/A   Clear
5:51 PM 87.1 °F 19.0 °F 8% 29.93 in 10.0 mi East 11.5 mph - N/A   Clear
6:51 PM 84.0 °F 19.0 °F 9% 29.94 in 10.0 mi East 11.5 mph - N/A   Clear
7:51 PM 75.0 °F 21.0 °F 13% 29.96 in 10.0 mi East 9.2 mph - N/A   Clear
8:51 PM 73.0 °F 21.9 °F 15% 29.97 in 10.0 mi SE 13.8 mph - N/A   Clear
9:51 PM 73.0 °F 23.0 °F 15% 29.97 in 10.0 mi SE 12.7 mph - N/A   Clear
10:51 PM 72.0 °F 24.1 °F 17% 29.98 in 10.0 mi SE 13.8 mph - N/A   Clear
11:51 PM 64.0 °F 24.1 °F 22% 30.00 in 10.0 mi East 6.9 mph - N/A   Clear